• Em Portugal
  • Lista de países
  • Para 7 dias
  • Temperatura da água
  • Mapas de satélite
  • Mapa do tempo
  • Widgets de tempo
  • user-avatar
    Iniciar Sessão

    Previsão horária em Tarija

    Hoje, 25 Setembro, Terça-feira

    Tempo Temperatura Precipitação Vento Pressão Humidade
    00:00 +19°C° 0.1 mm 1 m/s 596 mmHg 89%
    01:00 +18°C° 0.1 mm 1 m/s 596 mmHg 90%
    02:00 +18°C° 0.1 mm 1 m/s 596 mmHg 91%
    03:00 +18°C° 0.2 mm 1 m/s 596 mmHg 91%
    04:00 +18°C° 0.2 mm 1 m/s 596 mmHg 92%
    05:00 +18°C° 0.2 mm 1 m/s 595 mmHg 93%
    06:00 +18°C° 0.3 mm 1 m/s 596 mmHg 89%
    07:00 +18°C° 0.3 mm 1 m/s 596 mmHg 86%
    08:00 +19°C° 0.3 mm 1 m/s 597 mmHg 83%
    09:00 +20°C° 0 mm 1 m/s 597 mmHg 75%
    10:00 +21°C° 0 mm 1 m/s 597 mmHg 66%
    11:00 +23°C° 0 mm 2 m/s 597 mmHg 58%
    12:00 +23°C° 0.1 mm 2 m/s 597 mmHg 57%
    13:00 +24°C° 0.1 mm 3 m/s 596 mmHg 57%
    14:00 +24°C° 0.1 mm 3 m/s 596 mmHg 56%
    15:00 +22°C° 1.2 mm 3 m/s 595 mmHg 65%
    16:00 +21°C° 1.2 mm 3 m/s 594 mmHg 73%
    17:00 +20°C° 1.2 mm 3 m/s 594 mmHg 82%
    18:00 +20°C° 0.4 mm 3 m/s 594 mmHg 83%
    19:00 +19°C° 0.4 mm 2 m/s 594 mmHg 85%
    20:00 +18°C° 0.4 mm 2 m/s 595 mmHg 86%
    21:00 +18°C° 0.7 mm 2 m/s 595 mmHg 87%
    22:00 +19°C° 0.7 mm 1 m/s 595 mmHg 87%
    23:00 +19°C° 0.7 mm 1 m/s 595 mmHg 88%

    Amanhã, 26 Setembro, Quarta-feira

    Tempo Temperatura Precipitação Vento Pressão Humidade
    00:00 +18°C° 0.4 mm 1 m/s 595 mmHg 88%
    01:00 +18°C° 0.4 mm 1 m/s 595 mmHg 87%
    02:00 +18°C° 0.4 mm 1 m/s 594 mmHg 87%
    03:00 +18°C° 0.3 mm 1 m/s 594 mmHg 86%
    04:00 +18°C° 0.3 mm 1 m/s 594 mmHg 86%
    05:00 +18°C° 0.3 mm 1 m/s 594 mmHg 85%
    06:00 +18°C° 0.1 mm 1 m/s 595 mmHg 81%
    07:00 +19°C° 0.1 mm 1 m/s 596 mmHg 76%
    08:00 +20°C° 0.1 mm 1 m/s 596 mmHg 71%
    09:00 +21°C° 0 mm 1 m/s 597 mmHg 64%
    10:00 +23°C° 0 mm 2 m/s 597 mmHg 56%
    11:00 +24°C° 0 mm 2 m/s 598 mmHg 49%
    12:00 +25°C° 0.2 mm 2 m/s 597 mmHg 47%
    13:00 +26°C° 0.2 mm 2 m/s 597 mmHg 45%
    14:00 +26°C° 0.2 mm 3 m/s 596 mmHg 43%
    15:00 +25°C° 0.8 mm 3 m/s 596 mmHg 52%
    16:00 +24°C° 0.8 mm 3 m/s 595 mmHg 62%
    17:00 +21°C° 0.8 mm 3 m/s 594 mmHg 72%
    18:00 +21°C° 0.4 mm 3 m/s 595 mmHg 77%
    19:00 +20°C° 0.4 mm 2 m/s 595 mmHg 83%
    20:00 +19°C° 0.4 mm 2 m/s 596 mmHg 88%
    21:00 +19°C° 0.9 mm 2 m/s 596 mmHg 88%
    22:00 +19°C° 0.9 mm 2 m/s 596 mmHg 88%
    23:00 +19°C° 0.9 mm 1 m/s 597 mmHg 87%

    Depois de amanhã, 27 Setembro, Quinta-feira

    Tempo Temperatura Precipitação Vento Pressão Humidade
    00:00 +19°C° 0.4 mm 1 m/s 596 mmHg 86%
    01:00 +19°C° 0.4 mm 1 m/s 596 mmHg 86%
    02:00 +18°C° 0.4 mm 1 m/s 595 mmHg 85%
    03:00 +18°C° 0.2 mm 1 m/s 595 mmHg 86%
    04:00 +18°C° 0.2 mm 1 m/s 595 mmHg 87%
    05:00 +16°C° 0.2 mm 1 m/s 595 mmHg 88%
    06:00 +18°C° 0.1 mm 1 m/s 596 mmHg 86%
    07:00 +18°C° 0.1 mm 1 m/s 596 mmHg 85%
    08:00 +19°C° 0.1 mm 1 m/s 597 mmHg 83%
    09:00 +20°C° 0.1 mm 1 m/s 597 mmHg 76%
    10:00 +21°C° 0.1 mm 1 m/s 597 mmHg 70%
    11:00 +21°C° 0.1 mm 2 m/s 598 mmHg 63%
    12:00 +23°C° 0.2 mm 2 m/s 597 mmHg 61%
    13:00 +22°C° 0.2 mm 3 m/s 597 mmHg 60%
    14:00 +24°C° 0.2 mm 3 m/s 596 mmHg 58%
    15:00 +22°C° 1 mm 3 m/s 596 mmHg 66%
    16:00 +21°C° 1 mm 3 m/s 595 mmHg 74%
    17:00 +20°C° 1 mm 3 m/s 594 mmHg 82%
    18:00 +20°C° 0.3 mm 3 m/s 595 mmHg 84%
    19:00 +19°C° 0.3 mm 3 m/s 596 mmHg 87%
    20:00 +19°C° 0.3 mm 2 m/s 596 mmHg 90%
    21:00 +18°C° 0.2 mm 2 m/s 596 mmHg 91%
    22:00 +18°C° 0.2 mm 2 m/s 597 mmHg 91%
    23:00 +19°C° 0.2 mm 1 m/s 597 mmHg 91%

    28 Setembro, Sexta-feira

    Tempo Temperatura Precipitação Vento Pressão Humidade
    00:00 +19°C° 0.2 mm 1 m/s 597 mmHg 91%
    01:00 +19°C° 0.2 mm 1 m/s 596 mmHg 92%
    02:00 +18°C° 0.2 mm 1 m/s 595 mmHg 92%
    03:00 +18°C° 0.2 mm 1 m/s 596 mmHg 92%
    04:00 +18°C° 0.2 mm 1 m/s 596 mmHg 91%
    05:00 +18°C° 0.2 mm 1 m/s 596 mmHg 91%
    06:00 +18°C° 0.3 mm 1 m/s 596 mmHg 90%
    07:00 +18°C° 0.3 mm 1 m/s 597 mmHg 90%
    08:00 +19°C° 0.3 mm 1 m/s 597 mmHg 89%
    09:00 +20°C° 0.1 mm 1 m/s 598 mmHg 82%
    10:00 +21°C° 0.1 mm 1 m/s 598 mmHg 75%
    11:00 +22°C° 0.1 mm 1 m/s 598 mmHg 68%
    12:00 +23°C° 0.4 mm 2 m/s 597 mmHg 63%
    13:00 +24°C° 0.4 mm 3 m/s 597 mmHg 58%
    14:00 +26°C° 0.4 mm 3 m/s 596 mmHg 53%
    15:00 +24°C° 2 mm 3 m/s 596 mmHg 60%
    16:00 +22°C° 2 mm 3 m/s 595 mmHg 68%
    17:00 +21°C° 2 mm 3 m/s 594 mmHg 76%
    18:00 +20°C° 0.9 mm 3 m/s 595 mmHg 80%
    19:00 +20°C° 0.9 mm 2 m/s 595 mmHg 84%
    20:00 +19°C° 0.9 mm 2 m/s 595 mmHg 87%
    21:00 +19°C° 0.4 mm 2 m/s 595 mmHg 85%
    22:00 +20°C° 0.4 mm 1 m/s 595 mmHg 83%
    23:00 +19°C° 0.4 mm 1 m/s 595 mmHg 81%

    29 Setembro, Sábado

    Tempo Temperatura Precipitação Vento Pressão Humidade
    00:00 +18°C° 0 mm 2 m/s 595 mmHg 78%
    01:00 +18°C° 0 mm 2 m/s 595 mmHg 75%
    02:00 +18°C° 0 mm 2 m/s 594 mmHg 72%
    03:00 +18°C° 0 mm 2 m/s 594 mmHg 71%
    04:00 +17°C° 0 mm 2 m/s 594 mmHg 69%
    05:00 +17°C° 0 mm 2 m/s 594 mmHg 67%
    06:00 +18°C° 0 mm 2 m/s 595 mmHg 60%
    07:00 +20°C° 0 mm 2 m/s 596 mmHg 53%
    08:00 +23°C° 0 mm 2 m/s 596 mmHg 47%
    09:00 +25°C° 0 mm 2 m/s 597 mmHg 38%
    10:00 +27°C° 0 mm 2 m/s 597 mmHg 29%
    11:00 +29°C° 0 mm 2 m/s 598 mmHg 20%
    12:00 +30°C° 0 mm 2 m/s 597 mmHg 19%
    13:00 +31°C° 0 mm 2 m/s 597 mmHg 18%
    14:00 +31°C° 0 mm 2 m/s 596 mmHg 16%
    15:00 +31°C° 0 mm 3 m/s 596 mmHg 20%
    16:00 +30°C° 0 mm 4 m/s 595 mmHg 24%
    17:00 +30°C° 0 mm 5 m/s 595 mmHg 28%
    18:00 +28°C° 0.2 mm 4 m/s 594 mmHg 36%
    19:00 +26°C° 0.2 mm 3 m/s 594 mmHg 43%
    20:00 +24°C° 0.2 mm 2 m/s 594 mmHg 50%
    21:00 +24°C° 0.1 mm 2 m/s 594 mmHg 52%
    22:00 +23°C° 0.1 mm 2 m/s 594 mmHg 53%
    23:00 +23°C° 0.1 mm 2 m/s 594 mmHg 55%

    30 Setembro, Domingo

    Tempo Temperatura Precipitação Vento Pressão Humidade
    00:00 +21°C° 0 mm 2 m/s 594 mmHg 55%
    01:00 +21°C° 0 mm 2 m/s 593 mmHg 55%
    02:00 +20°C° 0 mm 2 m/s 593 mmHg 55%
    03:00 +20°C° 0 mm 2 m/s 593 mmHg 52%
    04:00 +20°C° 0 mm 3 m/s 593 mmHg 49%
    05:00 +19°C° 0 mm 3 m/s 593 mmHg 47%
    06:00 +21°C° 0 mm 3 m/s 594 mmHg 40%
    07:00 +24°C° 0 mm 3 m/s 595 mmHg 34%
    08:00 +25°C° 0 mm 3 m/s 596 mmHg 28%
    09:00 +27°C° 0 mm 2 m/s 596 mmHg 22%
    10:00 +30°C° 0 mm 2 m/s 597 mmHg 17%
    11:00 +32°C° 0 mm 1 m/s 597 mmHg 12%
    12:00 +32°C° 0 mm 2 m/s 596 mmHg 11%
    13:00 +34°C° 0 mm 2 m/s 596 mmHg 10%
    14:00 +35°C° 0 mm 2 m/s 595 mmHg 9%
    15:00 +34°C° 0 mm 3 m/s 595 mmHg 10%
    16:00 +34°C° 0 mm 4 m/s 595 mmHg 12%
    17:00 +34°C° 0 mm 5 m/s 594 mmHg 13%
    18:00 +30°C° 0 mm 4 m/s 594 mmHg 20%
    19:00 +28°C° 0 mm 4 m/s 594 mmHg 27%
    20:00 +26°C° 0 mm 3 m/s 594 mmHg 34%
    21:00 +25°C° 0 mm 3 m/s 594 mmHg 38%
    22:00 +24°C° 0 mm 2 m/s 594 mmHg 42%
    23:00 +24°C° 0 mm 1 m/s 594 mmHg 46%
    Mostrar mais